Location: Unspecified
(43.4354°N, 0.0000°E)
Time: 10:53:56
(UTC+00:00)

Transit 2A - Pass Details

Date: 24 June 2019
Orbit: 594 x 965 km, 66.7° (Epoch: 16 July)

Event Time Altitude Azimuth Distance (km) Brightness Sun altitude
Rises 09:44:52 0° 318° (NW) 3,384 9.0 55.4°
Reaches altitude 10° 09:47:49 10° 306° (NW) 2,377 8.3 55.9°
Maximum altitude 09:52:06 24° 253° (WSW) 1,513 7.6 56.6°
Drops below altitude 10° 09:56:02 10° 200° (SSW) 2,167 8.5 57.2°
Sets 09:58:37 0° 187° (S) 3,019 9.2 57.6°
